Wetbulb
64.57 66.95 71.78 71.49 71.75 71.95 72.04 71.94 72.14 72.07 72.42 72.69 72.35 72.40 72.24 72.10 71.82 72.21 71.78 71.72 73.11 72.76 72.85 72.65 72.49 72.58 72.33 72.05 71.82 71.58 71.57 71.46 71.48 71.42 71.49 71.48 71.75 71.78 71.21 70.40 69.84 67.66 69.72
66.31 68.58 71.68 71.52 71.61 71.94 71.89 71.72 72.02 72.31 72.01 72.18 72.01 72.08 72.07 71.47 71.24 70.91 70.83 70.52 72.00 72.59 72.73 72.05 71.82 71.73 72.01 71.84 71.69 71.46 71.41 71.12 70.79 70.55 70.08 69.94 70.53 71.44 70.89 71.28 70.62 68.26 69.54
67.80 68.64 69.77 71.52 71.62 71.75 71.71 71.40 72.21 72.16 72.09 72.21 72.07 71.72 71.18 70.98 70.88 70.63 70.47 70.78 71.58 71.93 71.33 71.35 71.72 71.83 71.48 71.28 71.11 71.04 70.93 70.62 70.27 70.17 69.62 67.56 68.42 71.06 71.19 70.89 70.97 70.31 70.03
68.19 68.43 69.47 71.41 71.57 71.85 71.52 71.34 71.43 71.53 71.31 71.26 71.75 71.37 70.54 70.65 70.58 70.39 70.22 70.24 70.61 70.82 70.71 71.00 71.35 71.15 71.15 71.00 70.69 70.50 69.98 69.25 68.48 67.69 66.29 66.88 68.15 70.42 69.88 69.68 69.67 70.19 70.17
68.13 68.70 69.79 71.50 71.92 71.66 71.38 71.36 70.90 70.72 69.49 69.22 69.23 70.31 70.16 70.20 70.19 70.16 69.94 69.63 69.57 69.80 69.99 70.30 70.73 71.11 70.44 70.22 69.91 69.64 69.23 68.45 67.13 65.53 64.22 64.08 65.46 67.58 68.88 68.71 68.25 68.58 68.37
68.08 68.88 70.32 71.57 71.48 71.50 71.29 70.83 70.63 69.66 68.90 68.99 68.72 69.67 69.34 69.61 69.76 69.78 69.65 69.42 69.79 69.80 69.33 69.64 70.19 70.37 70.62 69.90 69.22 69.25 68.92 68.05 66.14 63.98 63.83 66.21 66.06 69.06 69.47 69.08 68.45 68.14 68.20
67.59 68.46 68.97 71.26 71.16 71.17 70.70 70.33 70.09 68.80 68.60 68.41 69.00 68.57 68.96 68.98 69.38 69.54 69.38 69.21 69.23 68.85 68.76 69.04 69.32 69.09 69.14 69.29 69.23 68.95 67.99 66.52 63.77 63.37 63.68 64.16 65.06 67.69 67.62 67.50 66.97 66.83 66.62
67.48 68.00 68.77 70.17 70.67 70.35 70.23 70.03 68.82 68.47 68.34 68.44 68.38 68.85 68.90 68.50 68.76 69.02 68.86 68.85 68.78 68.63 68.37 68.39 68.35 68.01 67.58 67.68 68.56 67.98 66.79 65.43 63.24 62.66 62.90 63.76 67.15 67.50 67.25 66.75 66.40 66.25 65.97
67.43 67.33 67.35 68.18 68.77 69.27 69.40 69.50 69.39 69.39 68.05 69.11 69.13 68.53 68.90 68.79 68.71 68.63 68.17 67.98 68.00 67.94 67.67 67.32 67.25 67.01 67.14 67.56 67.99 67.05 65.71 64.39 61.14 62.14 63.52 63.20 67.18 66.55 65.91 65.73 65.62 65.51 65.51
66.25 66.70 66.23 66.57 66.74 66.23 66.76 68.54 68.47 68.58 69.25 69.43 68.73 67.92 67.28 67.39 67.54 67.07 66.84 67.42 67.08 67.14 67.00 66.86 66.65 66.28 65.65 67.30 67.04 65.59 63.96 62.63 59.52 60.88 61.85 63.68 65.92 65.37 64.74 64.12 64.39 64.73 64.35
66.11 66.66 65.82 65.70 65.60 65.71 66.17 66.55 67.62 67.92 67.56 67.00 66.08 65.03 63.73 62.25 62.47 62.96 64.44 65.43 66.44 66.31 66.40 66.24 65.40 64.19 62.30 62.69 64.33 63.63 61.43 58.57 58.76 59.26 60.48 65.65 64.90 64.63 63.99 63.12 62.85 62.96 63.22
63.23 65.19 66.38 64.91 64.66 65.41 66.76 65.03 64.77 65.07 63.76 63.33 62.74 62.12 61.62 60.75 61.36 61.81 61.50 62.68 63.44 62.66 64.51 63.65 63.29 61.16 58.20 55.56 55.12 58.48 57.81 57.79 57.48 57.91 59.13 65.10 63.81 63.81 63.34 62.54 62.13 62.13 62.54
63.01 63.93 65.53 65.18 64.19 64.22 64.13 63.19 62.89 62.35 61.87 61.74 61.63 62.09 60.32 59.80 59.24 59.08 58.69 58.75 58.78 57.79 56.14 55.83 54.72 54.09 52.88 52.73 52.52 52.71 53.97 55.58 55.90 56.15 58.41 63.27 63.23 63.07 62.82 62.21 61.58 61.55 61.71
62.05 62.72 64.14 65.22 63.78 63.38 63.53 62.58 61.88 61.03 60.81 60.57 61.38 61.77 59.69 58.30 58.05 58.05 58.20 57.64 56.15 55.58 54.75 54.12 53.36 52.82 52.48 51.74 51.16 51.47 50.95 51.04 53.62 54.66 55.14 60.12 61.86 62.35 62.27 61.85 61.69 61.43 61.51
61.06 61.94 63.89 64.37 64.10 63.44 62.89 62.13 61.46 60.64 60.54 60.73 61.01 60.45 60.35 58.89 58.05 58.20 56.74 55.95 55.46 55.60 54.95 53.80 52.88 51.71 50.09 49.87 49.14 48.39 48.24 49.24 50.06 51.78 52.84 57.72 60.41 61.35 61.87 62.01 62.09 61.78 61.80
61.14 61.42 62.21 63.82 63.92 63.79 62.83 61.93 61.65 61.12 61.00 60.90 59.85 59.47 59.81 58.72 58.55 56.69 56.20 56.26 56.29 56.26 54.85 53.40 51.62 50.34 49.28 49.12 48.94 48.51 47.27 46.72 46.93 48.23 50.07 51.07 57.04 59.47 61.07 61.81 62.01 61.79 61.61
60.88 61.61 61.83 62.85 63.86 64.52 63.72 62.99 62.15 62.14 63.05 59.90 58.85 59.03 58.75 58.25 57.51 56.78 56.34 56.26 56.36 56.23 54.44 53.28 52.15 50.76 49.75 49.57 48.54 48.86 48.39 47.87 46.90 45.87 46.38 47.05 49.72 55.27 57.98 59.59 61.01 61.58 61.46
60.02 60.65 61.90 63.89 63.28 63.63 63.38 63.26 62.91 62.25 61.93 60.52 58.51 58.35 58.66 58.21 57.88 57.17 56.95 56.63 56.64 55.59 54.09 52.14 50.58 49.81 48.47 48.17 47.83 47.92 47.23 47.36 46.93 45.92 45.68 45.61 46.61 47.63 51.13 56.62 57.42 58.06 58.88
59.83 60.53 60.64 62.21 63.07 62.55 62.18 61.64 61.14 60.46 60.00 59.49 58.12 58.18 58.27 58.68 58.25 57.81 57.06 56.29 55.44 54.23 52.66 51.75 49.60 48.64 47.82 48.57 49.11 47.56 44.85 45.18 45.71 47.16 45.24 45.70 47.17 46.91 46.84 53.19 54.81 55.88 57.30
59.82 60.35 60.80 60.48 59.76 60.10 60.57 59.53 59.02 58.75 58.93 58.47 57.66 57.85 58.54 58.98 58.45 57.37 55.67 54.73 53.24 52.05 51.13 50.26 49.65 48.79 48.05 47.52 48.85 46.47 44.38 45.27 45.06 44.11 44.39 46.88 47.46 47.79 47.50 47.91 47.85 48.81 54.41
59.28 59.51 59.99 59.61 58.25 57.86 56.31 56.31 57.57 57.36 56.62 56.15 56.94 58.12 58.63 59.53 57.31 55.72 54.56 53.76 53.13 51.95 50.62 50.46 49.57 48.81 48.45 47.55 47.05 46.48 45.72 44.77 45.65 45.11 45.88 46.58 47.15 47.69 47.89 48.00 47.55 47.01 47.45
58.57 59.43 59.61 60.03 58.38 57.99 57.59 56.21 56.49 57.52 57.37 56.08 56.69 57.35 59.15 58.84 56.69 55.52 54.25 53.28 52.64 51.73 50.72 49.60 49.14 48.25 47.62 46.44 44.93 43.33 42.31 44.48 45.97 45.91 45.20 46.82 45.97 46.40 46.78 48.03 46.54 45.75 46.18
57.68 58.50 59.26 59.84 58.91 58.36 57.60 56.64 55.74 57.67 57.35 56.85 55.42 55.80 56.57 57.14 56.31 56.00 53.86 52.67 51.88 51.51 49.77 48.44 48.15 47.88 46.30 46.76 46.15 44.78 40.90 40.03 41.68 45.33 45.42 45.21 45.14 44.29 44.95 46.44 44.08 45.79 45.29
57.63 58.64 59.32 59.71 59.13 58.24 57.79 56.80 56.27 55.32 55.73 55.13 55.08 54.53 54.12 55.12 54.62 53.76 52.46 51.91 51.24 50.62 49.63 49.11 49.26 47.39 46.71 45.36 46.39 47.17 44.87 44.07 41.35 40.36 43.79 43.93 44.81 44.53 43.50 43.80 43.11 43.63 43.01
57.42 58.11 58.88 58.95 59.15 58.71 58.17 57.70 56.72 54.39 54.41 53.99 53.40 52.22 51.74 51.64 52.40 52.41 52.02 51.13 50.36 49.87 48.70 48.27 47.52 47.12 46.65 44.98 44.14 43.63 43.37 43.44 42.90 40.92 38.49 41.25 43.04 43.76 43.69 40.77 42.61 42.23 42.32
54.16 57.53 58.06 57.84 58.27 58.12 58.12 56.91 56.44 54.91 53.82 53.03 51.12 50.63 50.21 50.17 50.56 50.85 50.77 49.97 49.27 48.47 47.82 46.92 46.22 45.47 44.66 44.10 43.70 43.99 43.38 42.27 41.87 41.20 40.17 39.25 38.55 38.97 39.06 40.67 39.43 39.71 40.46
MSLP
1016.53 1016.26 1016.14 1016.30 1016.40 1016.39 1016.46 1016.65 1016.66 1016.82 1016.88 1016.92 1017.07 1017.18 1017.33 1017.33 1017.45 1017.48 1017.54 1017.50 1017.45 1017.56 1017.48 1017.69 1017.65 1017.73 1017.89 1018.06 1018.22 1018.33 1018.39 1018.48 1018.55 1018.52 1018.53 1018.62 1018.50 1018.52 1018.60 1018.65 1018.67 1018.67 1018.60
1015.90 1016.14 1016.23 1016.36 1016.61 1016.65 1016.79 1016.97 1017.05 1017.15 1017.30 1017.35 1017.47 1017.45 1017.70 1017.77 1017.85 1017.99 1018.01 1017.92 1017.95 1017.94 1018.03 1018.21 1018.23 1018.27 1018.32 1018.53 1018.69 1018.78 1018.90 1018.98 1019.07 1019.07 1019.04 1019.10 1019.10 1019.04 1019.05 1018.99 1019.06 1019.02 1018.99
1015.95 1016.19 1016.43 1016.58 1016.76 1016.87 1017.05 1017.24 1017.41 1017.49 1017.55 1017.64 1017.74 1017.90 1018.07 1018.20 1018.36 1018.44 1018.52 1018.54 1018.53 1018.54 1018.62 1018.72 1018.76 1018.70 1018.87 1019.06 1019.16 1019.26 1019.38 1019.46 1019.51 1019.60 1019.56 1019.52 1019.59 1019.44 1019.48 1019.45 1019.47 1019.38 1019.48
1015.92 1016.33 1016.64 1016.80 1016.89 1017.11 1017.33 1017.51 1017.64 1017.75 1017.89 1018.01 1018.17 1018.34 1018.55 1018.65 1018.75 1018.91 1019.00 1019.07 1019.13 1019.16 1019.23 1019.23 1019.17 1019.23 1019.46 1019.58 1019.70 1019.79 1019.91 1019.96 1020.05 1020.05 1020.01 1019.95 1019.93 1019.93 1019.95 1019.90 1019.87 1019.89 1019.84
1016.20 1016.54 1016.81 1016.93 1017.14 1017.38 1017.62 1017.79 1017.90 1018.05 1018.23 1018.44 1018.60 1018.81 1018.95 1019.13 1019.25 1019.36 1019.46 1019.50 1019.60 1019.73 1019.78 1019.77 1019.79 1019.91 1020.05 1020.06 1020.17 1020.29 1020.35 1020.47 1020.49 1020.47 1020.47 1020.47 1020.46 1020.57 1020.53 1020.58 1020.50 1020.48 1020.51
1016.41 1016.77 1016.95 1017.16 1017.41 1017.71 1017.93 1018.09 1018.22 1018.42 1018.69 1018.93 1019.07 1019.25 1019.44 1019.57 1019.73 1019.87 1019.99 1020.10 1020.20 1020.20 1020.20 1020.26 1020.33 1020.45 1020.51 1020.53 1020.68 1020.75 1020.88 1020.98 1021.01 1021.13 1021.08 1020.97 1020.98 1021.02 1020.99 1020.98 1020.98 1020.92 1020.90
1016.71 1017.01 1017.24 1017.45 1017.76 1017.98 1018.21 1018.42 1018.63 1018.86 1019.07 1019.31 1019.51 1019.68 1019.85 1020.01 1020.14 1020.28 1020.40 1020.48 1020.56 1020.61 1020.62 1020.65 1020.73 1020.84 1020.91 1020.93 1020.99 1021.23 1021.41 1021.41 1021.48 1021.58 1021.63 1021.56 1021.44 1021.33 1021.33 1021.42 1021.33 1021.31 1021.28
1016.88 1017.26 1017.49 1017.76 1018.05 1018.31 1018.55 1018.83 1019.01 1019.23 1019.47 1019.63 1019.88 1020.14 1020.30 1020.43 1020.61 1020.75 1020.83 1020.93 1020.95 1020.97 1021.06 1021.15 1021.18 1021.21 1021.25 1021.32 1021.47 1021.62 1021.75 1021.84 1021.94 1022.14 1022.16 1022.06 1021.79 1021.71 1021.91 1021.94 1021.84 1021.83 1021.82
1017.14 1017.51 1017.86 1018.10 1018.33 1018.52 1018.83 1019.17 1019.39 1019.59 1019.75 1020.07 1020.35 1020.56 1020.75 1020.93 1021.07 1021.16 1021.22 1021.28 1021.40 1021.49 1021.52 1021.62 1021.65 1021.70 1021.71 1021.72 1021.85 1022.08 1022.22 1022.34 1022.47 1022.56 1022.49 1022.47 1022.28 1022.28 1022.33 1022.27 1022.27 1022.27 1022.25
1017.54 1017.82 1018.22 1018.50 1018.69 1018.94 1019.20 1019.43 1019.69 1019.95 1020.21 1020.52 1020.91 1021.15 1021.33 1021.46 1021.56 1021.66 1021.73 1021.73 1021.76 1021.82 1021.91 1021.94 1022.00 1022.03 1022.09 1022.10 1022.27 1022.44 1022.57 1022.73 1022.90 1022.89 1022.84 1022.74 1022.62 1022.62 1022.65 1022.65 1022.66 1022.63 1022.67
1017.90 1018.22 1018.41 1018.76 1019.04 1019.27 1019.57 1019.85 1020.10 1020.38 1020.68 1021.04 1021.35 1021.61 1021.81 1022.02 1022.10 1022.16 1022.19 1022.19 1022.21 1022.23 1022.26 1022.31 1022.39 1022.47 1022.55 1022.63 1022.70 1022.80 1022.94 1023.14 1023.19 1023.28 1023.24 1022.98 1022.87 1022.87 1022.94 1022.99 1022.99 1022.97 1022.95
1017.91 1018.31 1018.54 1018.94 1019.27 1019.52 1019.83 1020.23 1020.52 1020.79 1021.14 1021.44 1021.70 1021.92 1022.11 1022.33 1022.42 1022.52 1022.64 1022.67 1022.69 1022.69 1022.66 1022.65 1022.74 1022.90 1023.05 1023.19 1023.29 1023.28 1023.42 1023.48 1023.54 1023.56 1023.50 1023.24 1023.10 1023.07 1023.15 1023.21 1023.24 1023.21 1023.17
1017.88 1018.42 1018.73 1019.05 1019.42 1019.70 1020.12 1020.54 1020.89 1021.19 1021.48 1021.73 1021.92 1022.11 1022.35 1022.58 1022.77 1022.90 1022.97 1023.00 1023.01 1023.05 1023.14 1023.17 1023.30 1023.41 1023.52 1023.60 1023.61 1023.64 1023.67 1023.72 1023.85 1023.88 1023.78 1023.57 1023.41 1023.31 1023.30 1023.35 1023.37 1023.33 1023.27
1018.07 1018.47 1018.84 1019.08 1019.53 1019.89 1020.25 1020.67 1021.05 1021.41 1021.70 1021.99 1022.11 1022.22 1022.50 1022.86 1023.08 1023.22 1023.31 1023.37 1023.44 1023.55 1023.64 1023.74 1023.84 1023.85 1023.83 1023.85 1023.96 1024.02 1024.04 1024.06 1024.08 1024.09 1024.02 1023.86 1023.71 1023.59 1023.49 1023.45 1023.44 1023.39 1023.33
1018.18 1018.54 1018.89 1019.14 1019.54 1019.95 1020.35 1020.82 1021.18 1021.45 1021.72 1021.97 1022.21 1022.42 1022.64 1022.91 1023.14 1023.27 1023.51 1023.62 1023.81 1023.84 1023.95 1024.06 1024.13 1024.21 1024.28 1024.23 1024.23 1024.29 1024.33 1024.30 1024.26 1024.21 1024.14 1023.97 1023.91 1023.84 1023.74 1023.67 1023.59 1023.52 1023.44
1018.03 1018.47 1018.91 1019.30 1019.51 1019.89 1020.31 1020.75 1021.12 1021.41 1021.71 1022.00 1022.27 1022.45 1022.59 1022.83 1023.12 1023.41 1023.68 1023.88 1023.99 1024.09 1024.24 1024.33 1024.46 1024.52 1024.63 1024.57 1024.50 1024.42 1024.45 1024.41 1024.35 1024.30 1024.31 1024.29 1024.16 1024.12 1024.04 1023.90 1023.74 1023.62 1023.49
1017.86 1018.31 1018.83 1019.17 1019.40 1019.64 1020.03 1020.47 1020.92 1021.28 1021.51 1021.96 1022.24 1022.44 1022.54 1022.78 1023.13 1023.47 1023.76 1024.08 1024.21 1024.24 1024.32 1024.43 1024.55 1024.64 1024.71 1024.70 1024.77 1024.73 1024.67 1024.65 1024.67 1024.66 1024.66 1024.67 1024.61 1024.45 1024.32 1024.16 1024.03 1023.90 1023.77
1017.68 1018.23 1018.64 1018.90 1019.23 1019.29 1019.64 1020.17 1020.55 1020.99 1021.36 1021.68 1022.20 1022.43 1022.50 1022.76 1023.03 1023.48 1023.89 1024.14 1024.25 1024.38 1024.51 1024.72 1024.87 1025.04 1025.14 1025.24 1025.26 1025.07 1024.99 1024.81 1024.79 1024.75 1024.74 1024.79 1024.79 1024.73 1024.61 1024.45 1024.36 1024.29 1024.15
1017.32 1017.83 1018.38 1018.56 1018.88 1019.19 1019.50 1020.00 1020.42 1020.85 1021.33 1021.68 1022.17 1022.34 1022.55 1022.77 1023.06 1023.49 1023.83 1024.19 1024.34 1024.58 1024.76 1024.88 1025.26 1025.35 1025.50 1025.50 1025.42 1025.38 1025.27 1025.13 1025.05 1024.94 1025.10 1025.11 1025.09 1025.09 1025.08 1024.90 1024.79 1024.65 1024.36
1017.07 1017.53 1018.01 1018.41 1018.70 1019.03 1019.42 1020.13 1020.72 1021.14 1021.50 1021.82 1021.98 1022.30 1022.49 1022.79 1023.11 1023.58 1023.99 1024.34 1024.50 1024.73 1024.98 1025.13 1025.47 1025.69 1025.75 1025.70 1025.57 1025.62 1025.64 1025.51 1025.37 1025.38 1025.38 1025.33 1025.37 1025.34 1025.29 1025.21 1025.13 1025.03 1024.72
1017.05 1017.45 1017.82 1018.25 1018.63 1019.11 1019.66 1020.42 1020.94 1021.32 1021.82 1022.07 1022.12 1022.23 1022.40 1022.65 1023.17 1023.63 1024.15 1024.44 1024.62 1024.90 1025.27 1025.23 1025.52 1025.79 1025.88 1025.69 1025.71 1026.00 1025.90 1025.88 1025.88 1025.82 1025.72 1025.71 1025.59 1025.60 1025.52 1025.42 1025.32 1025.21 1025.04
1016.81 1017.26 1017.64 1017.92 1018.40 1018.91 1019.22 1019.92 1020.46 1021.00 1021.65 1021.98 1022.18 1022.31 1022.49 1022.62 1023.27 1023.74 1024.17 1024.61 1024.84 1025.15 1025.42 1025.56 1025.65 1026.00 1026.32 1026.24 1026.43 1026.68 1026.70 1026.42 1026.18 1026.19 1026.05 1025.96 1026.00 1025.87 1025.74 1025.53 1025.41 1025.33 1025.21
1016.53 1016.79 1017.22 1017.68 1018.21 1018.68 1019.04 1019.82 1020.59 1021.07 1021.75 1022.22 1022.53 1022.72 1022.78 1022.89 1023.30 1023.76 1024.30 1024.71 1025.03 1025.28 1025.68 1025.82 1025.94 1026.11 1026.61 1026.78 1026.64 1026.81 1027.28 1027.48 1027.26 1026.43 1026.24 1026.16 1026.05 1025.89 1025.97 1025.72 1025.51 1025.51 1025.43
1016.08 1016.55 1016.95 1017.47 1018.05 1018.55 1018.98 1019.57 1020.02 1020.76 1021.67 1022.05 1022.32 1022.70 1023.06 1023.23 1023.50 1023.96 1024.44 1024.80 1025.14 1025.47 1025.82 1025.92 1026.02 1026.29 1026.56 1027.04 1027.05 1027.12 1027.27 1027.53 1027.77 1027.66 1026.61 1026.34 1026.25 1026.21 1026.21 1025.92 1025.81 1025.65 1025.63
1015.61 1016.06 1016.61 1017.25 1017.87 1018.39 1018.90 1019.30 1019.85 1020.63 1021.16 1021.73 1022.36 1022.92 1023.43 1023.71 1023.86 1024.24 1024.59 1024.94 1025.30 1025.63 1025.96 1026.12 1026.37 1026.53 1026.75 1027.23 1027.45 1027.69 1027.83 1027.95 1028.07 1028.36 1028.06 1027.15 1026.64 1026.32 1026.09 1026.06 1025.97 1026.08 1026.08
1015.34 1015.82 1016.33 1016.94 1017.52 1018.07 1018.67 1019.14 1019.58 1020.35 1021.18 1021.89 1022.58 1023.21 1023.65 1024.07 1024.36 1024.58 1024.84 1025.16 1025.50 1025.83 1026.10 1026.41 1026.64 1026.88 1027.28 1027.59 1027.86 1028.01 1028.24 1028.54 1028.80 1029.00 1029.03 1028.32 1027.86 1026.93 1026.50 1026.28 1026.27 1026.42 1026.32
Wind_Speed
4 6 11 13 14 15 16 16 17 16 16 18 19 19 19 20 19 18 18 17 17 18 20 19 19 19 19 20 20 20 19 19 19 19 17 17 19 20 20 20 17 13 20
7 6 12 14 15 16 17 16 16 16 16 18 18 20 20 20 19 19 18 18 17 18 20 19 18 17 17 17 18 18 19 19 18 16 15 13 16 19 19 17 17 16 19
9 6 8 15 16 17 17 17 15 16 16 16 18 19 19 19 19 18 18 18 17 19 19 18 17 18 18 18 17 19 19 19 18 15 13 6 9 17 19 18 17 18 18
10 6 8 16 17 18 17 17 16 15 15 15 17 17 18 18 18 18 18 18 17 18 18 19 20 19 19 18 18 20 18 18 15 12 6 7 10 18 19 18 18 17 17
9 6 9 16 16 17 16 16 16 15 17 17 16 16 15 16 17 17 17 17 17 16 17 18 18 17 17 17 17 17 17 17 15 11 8 7 7 14 17 16 15 16 16
9 7 10 14 16 15 15 15 16 16 17 16 16 14 15 15 16 16 15 15 14 15 16 17 18 18 15 16 16 16 16 15 12 7 7 8 8 15 16 15 15 15 15
8 6 8 15 15 15 15 15 14 16 16 16 14 15 15 15 15 15 15 15 15 16 16 17 18 18 17 15 15 15 14 13 7 7 7 7 7 13 14 13 13 13 13
9 6 8 14 14 14 15 14 16 16 15 15 14 14 13 14 13 14 14 14 15 16 16 16 16 16 14 13 11 13 12 11 8 6 6 5 10 13 13 13 13 13 12
7 7 6 6 8 13 14 12 12 13 14 14 13 13 12 12 12 13 14 14 15 15 16 15 15 15 15 12 12 12 11 10 6 4 5 4 11 12 12 13 12 11 12
7 7 6 5 5 6 7 11 11 10 13 15 12 11 11 11 11 12 11 12 14 14 14 14 13 13 14 15 13 11 10 10 6 5 4 4 11 12 13 12 11 11 11
9 9 6 6 5 6 6 6 9 11 12 12 10 10 7 4 5 7 9 11 12 13 13 13 14 13 13 12 10 9 8 3 4 4 3 7 9 10 11 11 11 11 11
12 10 8 6 6 6 5 5 5 6 5 5 5 5 4 5 4 5 7 10 11 10 11 12 12 12 8 4 4 7 3 4 4 3 3 8 9 10 10 10 10 10 9
11 7 9 7 6 6 5 4 3 3 3 3 5 5 5 4 4 3 3 3 4 6 4 6 6 5 6 4 4 4 4 4 2 2 4 8 9 10 10 9 9 9 10
11 12 10 11 6 5 4 3 4 3 3 3 3 4 4 3 3 3 2 3 4 3 5 5 3 4 6 6 6 5 5 3 2 2 4 8 8 9 9 9 9 10 10
14 12 10 11 7 6 6 4 4 4 3 4 3 3 3 4 3 3 3 3 3 3 3 4 4 4 5 5 5 5 5 4 4 2 2 7 7 7 8 9 10 11 11
11 10 8 10 8 7 6 6 4 4 4 4 3 4 4 4 4 4 4 3 3 3 3 3 3 4 3 3 4 4 3 3 3 3 3 4 9 9 9 10 10 11 12
10 10 10 9 8 9 9 7 5 5 4 4 4 5 5 4 5 5 4 3 3 3 4 3 3 3 4 3 5 5 4 5 4 5 5 4 5 9 11 12 13 13 14
10 11 11 9 9 8 8 6 4 4 4 4 4 4 6 5 6 4 4 3 3 3 3 3 3 3 4 4 3 4 4 3 4 4 4 4 4 4 8 13 14 14 14
11 11 10 8 10 8 6 5 5 5 4 4 4 4 5 5 6 5 4 3 4 3 4 2 3 3 3 4 4 4 4 4 4 4 6 6 6 5 4 10 12 13 15
11 10 10 7 8 7 6 5 3 3 3 3 4 4 5 4 6 5 4 4 4 4 3 3 4 4 2 3 2 4 4 4 4 5 5 4 5 6 5 6 5 6 15
9 10 11 10 8 7 3 4 3 4 2 1 3 5 6 5 6 6 4 4 3 4 3 3 2 4 5 4 2 3 3 3 5 4 4 4 6 5 6 5 4 3 5
12 11 10 11 9 7 6 3 4 4 2 2 2 2 3 6 7 5 5 4 4 4 4 4 4 2 3 5 2 2 3 3 3 3 3 4 5 3 5 5 6 6 5
12 13 12 11 10 8 7 5 4 5 3 2 2 2 2 5 6 6 6 5 5 4 4 2 3 3 2 3 6 3 3 1 3 2 1 2 5 5 5 5 6 6 6
13 11 12 10 10 7 9 7 8 5 4 3 4 3 4 4 6 6 6 6 5 4 5 3 2 2 3 2 2 4 5 2 2 5 3 3 4 5 5 4 5 5 6
12 12 11 10 10 8 9 9 8 5 4 3 4 7 6 4 6 6 6 6 5 4 4 5 4 4 3 3 2 2 4 4 3 2 4 5 3 3 3 4 4 4 6
7 10 11 12 11 10 11 9 10 10 7 6 5 5 4 3 4 5 5 5 5 5 5 4 5 6 5 5 3 4 2 2 2 2 2 3 4 3 3 3 3 4 3
Wind_Direction
177 196 150 137 128 119 113 108 102 99 100 97 100 96 96 91 86 83 81 77 82 89 85 81 79 78 79 78 78 75 71 70 70 67 63 65 71 74 73 70 64 65 67
140 159 147 138 129 116 114 109 107 106 102 96 94 97 92 90 91 87 83 89 84 87 82 77 75 79 80 84 79 74 72 70 69 63 58 53 72 73 73 74 70 69 68
136 143 132 133 125 118 114 110 102 99 98 98 96 93 93 93 92 89 87 84 82 81 82 72 73 84 80 86 84 79 77 75 71 63 57 56 64 73 74 69 69 70 66
133 122 128 132 125 121 117 112 107 107 107 101 99 95 96 91 89 87 86 86 86 85 79 72 77 82 83 85 82 81 80 75 68 59 55 50 56 59 58 58 64 62 62
127 118 134 129 123 122 122 115 113 107 109 107 103 94 97 92 89 85 82 81 81 83 81 79 81 82 81 80 82 83 80 73 60 52 46 49 56 62 65 66 61 56 53
126 124 137 130 128 127 128 119 116 116 115 112 109 104 98 92 89 85 82 82 82 81 80 78 80 80 84 83 84 83 80 76 65 53 45 50 61 63 62 59 58 57 56
120 124 133 132 130 128 122 120 119 119 118 115 109 107 100 94 87 83 81 79 80 80 78 76 77 76 76 79 84 86 81 73 68 54 47 41 53 60 58 54 50 47 46
125 120 130 131 133 132 125 124 128 125 122 118 112 102 99 96 91 84 81 79 77 75 76 75 73 68 65 76 93 90 79 67 62 60 51 41 55 56 54 52 48 45 45
110 114 111 123 137 132 130 130 130 128 125 114 105 104 92 85 84 80 75 73 74 75 74 73 71 65 63 73 98 88 77 70 65 54 53 41 52 54 50 48 47 48 46
112 119 117 114 111 110 120 129 120 110 108 105 98 88 81 74 73 72 62 67 69 71 69 64 63 62 61 70 87 87 74 64 57 52 42 43 51 48 45 43 42 41 40
141 137 121 120 111 109 110 117 106 100 96 97 96 87 76 74 77 73 73 65 57 56 58 64 66 67 61 57 66 71 68 56 55 41 23 35 46 46 44 43 40 38 38
158 151 140 128 125 117 112 106 103 103 100 103 105 97 91 86 82 76 62 55 55 55 57 57 62 66 59 50 42 49 50 53 53 39 17 22 35 37 39 39 37 34 32
161 160 153 137 131 123 121 112 102 104 109 112 121 108 95 79 64 60 60 46 53 52 51 50 42 40 52 59 52 53 51 45 32 19 0 21 28 28 30 32 28 24 19
165 168 157 158 141 129 126 128 132 131 130 133 142 127 118 99 86 76 68 63 69 54 63 53 52 50 40 45 52 46 39 36 27 18 356 9 18 19 22 23 19 15 11
171 172 164 162 156 145 139 132 138 152 146 148 146 138 139 131 130 100 83 82 71 58 62 59 54 48 44 30 36 46 33 22 23 22 3 356 1 2 10 12 12 10 5
167 167 163 171 170 155 157 156 164 157 154 151 166 174 151 145 137 126 116 103 83 73 63 72 63 55 48 38 30 24 28 30 20 13 9 4 9 7 2 1 0 1 1
172 164 173 178 177 172 172 170 164 173 160 161 171 180 165 146 142 141 127 106 94 85 84 60 48 50 39 17 24 8 3 1 10 19 23 22 14 22 23 18 11 4 357
159 168 179 187 184 173 165 170 153 154 158 147 159 180 159 156 151 141 123 119 118 85 82 65 37 36 28 24 352 358 4 14 32 54 60 52 43 38 32 37 32 24 15
171 172 181 174 170 163 155 147 146 151 157 153 153 154 159 145 134 131 126 115 106 93 69 68 52 60 29 359 349 25 22 38 45 62 63 62 53 47 41 39 37 32 23
173 172 176 171 166 156 143 109 99 103 119 150 152 170 159 139 117 117 108 115 106 91 69 60 72 54 56 345 17 55 52 38 52 62 73 70 51 44 39 31 21 8 12
172 169 176 167 169 148 125 131 134 139 148 150 176 177 168 157 127 121 117 114 93 87 79 55 83 54 15 355 58 18 4 32 48 56 61 58 37 30 30 22 19 7 358
178 183 181 181 168 174 154 142 139 138 137 140 144 159 188 128 125 127 127 121 105 99 70 53 51 75 43 10 86 92 22 339 13 44 43 29 24 14 25 14 7 7 9
185 185 184 182 175 174 148 116 82 82 72 91 74 82 101 130 127 127 123 117 104 97 96 84 70 86 111 24 40 114 58 332 326 325 332 16 4 19 4 356 356 3 7
192 186 185 179 175 166 157 153 155 153 149 173 160 141 107 118 117 116 119 115 111 112 106 98 83 80 102 67 27 40 61 118 80 336 331 334 354 355 347 338 357 2 18
178 182 184 177 173 166 172 167 158 149 139 137 111 118 114 102 109 120 123 120 115 108 101 103 86 78 69 92 74 44 51 50 59 96 291 320 351 325 330 334 346 15 21
166 176 176 176 179 169 173 168 166 158 147 134 128 131 132 114 109 113 116 112 111 112 117 107 97 85 84 80 72 58 74 73 40 32 314 303 284 293 302 281 22 27 23